Content
SEND FEEDBACK

Daily
Averages
Monthly
Summary
United States of America

ALBANY, NEW YORK


Home > North America > United States > New York
Elevation: 275 feet     Latitude: 42 45N     Longitude: 073 48W

WEATHER
 
SELECT A DAY
Number of Records: 210,189;   Date Range: 1/1/95 - 11/25/14
 
SHARE

PRINT THIS DATA

[ ← Previous Day ]
WEATHER ALMANAC - MAY 19, 2013
[ Next Day → ]
[ °C ]   °F
Weather ElementAverageHighLow
Temperature56.4 °F59 °F (8:51 am)48.9 °F (5:51 am)
Dewpoint52.3 °F55.4 °F (5:39 pm)46.9 °F (4:51 am)
Humidity86.3 %94 % (6:31 am)75 % (8:51 am)
Barometer30.25 in30.31 in (10:51 am)30.16 in (11:51 pm)
Wind Speed7.7 mph13.8 mph (9:51 am)
Wind Gust20.7 mph (5:51 pm)
Weather ElementAverage
Visibility9.2 mi
Wind DirectionESE (129.3 °)

Weather ElementTotal
Precipitation0.12 in
Heating Degree Days11.1 (Base 65)
Growing Degree Days4 (Base 50)
Averaged from 28 records on May 19, 2013
WEATHER CONDITIONS BREAKOUT
WIND DIRECTION BREAKOUT
WEATHER BY HOUR - MAY 19, 2013
[ °C ]   °F
Local TimeTemperatureDewpointHumidityBarometerVisibilityWind DirectionWind SpeedGust SpeedPrecipitationEventsConditions
1:51 AM55.0 °F48.9 °F80 %30.26 in10.0 miSSE (150°)3.5 mphOvercast
2:51 AM53.1 °F48.9 °F86 %30.26 in10.0 miCalmOvercast
3:51 AM51.8 °F48.2 °F88 %30.26 in10.0 miCalmMostly Cloudy
4:51 AM51.1 °F46.9 °F86 %30.27 in10.0 miCalmMostly Cloudy
5:51 AM48.9 °F46.9 °F93 %30.28 in10.0 miCalmMostly Cloudy
6:31 AM50.0 °F48.2 °F94 %30.29 in10.0 miCalmMostly Cloudy
6:51 AM52.0 °F50.0 °F93 %30.29 in10.0 miCalmOvercast
7:51 AM57.0 °F51.1 °F81 %30.29 in10.0 miSouth (170°)5.8 mphMostly Cloudy
8:51 AM59.0 °F51.1 °F75 %30.30 in10.0 miSouth (170°)10.4 mphOvercast
9:51 AM57.9 °F52.0 °F81 %30.30 in10.0 miSouth (170°)13.8 mphOvercast
10:07 AM57.2 °F51.8 °F82 %30.30 in10.0 miSouth (170°)9.2 mph0.00 inLight Drizzle
10:41 AM57.2 °F53.6 °F88 %30.30 in7.0 miSSE (150°)10.4 mph0.00 inRainLight Rain
10:51 AM57.0 °F54.0 °F89 %30.31 in7.0 miSSE (160°)10.4 mph0.00 inRainLight Rain
11:24 AM57.2 °F53.6 °F88 %30.30 in3.0 miSSE (160°)10.4 mph0.03 inRainLight Rain
11:51 AM57.0 °F54.0 °F89 %30.30 in3.0 miSSE (150°)10.4 mph19.6 mph0.04 inOvercast
12:51 PM57.9 °F55.0 °F90 %30.28 in10.0 miSSE (160°)8.1 mph16.1 mph0.00 inRainLight Rain
1:51 PM59.0 °F55.0 °F87 %30.26 in10.0 miSSE (150°)10.4 mph0.00 inRainLight Rain
2:51 PM57.9 °F55.0 °F90 %30.25 in10.0 miSSE (160°)9.2 mph0.00 inRainLight Rain
3:51 PM57.9 °F55.0 °F90 %30.24 in10.0 miSouth (170°)6.9 mph0.01 inRainLight Rain
4:51 PM57.9 °F55.0 °F90 %30.22 in7.0 miSSE (150°)9.2 mph19.6 mph0.04 inRainLight Rain
5:39 PM59.0 °F55.4 °F88 %30.21 in10.0 miSouth (170°)10.4 mph19.6 mph0.00 inOvercast
5:51 PM59.0 °F54.0 °F83 %30.20 in10.0 miSSE (160°)13.8 mph20.7 mph0.00 inOvercast
6:51 PM59.0 °F53.1 °F81 %30.19 in10.0 miSouth (170°)12.7 mph18.4 mphOvercast
7:51 PM57.9 °F54.0 °F87 %30.19 in10.0 miSouth (170°)11.5 mphOvercast
8:51 PM57.9 °F53.1 °F84 %30.19 in10.0 miSouth (180°)10.4 mph19.6 mphOvercast
9:51 PM57.9 °F53.1 °F84 %30.19 in10.0 miSouth (170°)8.1 mphOvercast
10:51 PM57.9 °F53.1 °F84 %30.17 in10.0 miSouth (180°)11.5 mph19.6 mphOvercast
11:51 PM57.9 °F53.1 °F84 %30.16 in10.0 miSouth (180°)8.1 mph16.1 mphOvercast
Hourly data recorded from KALB, located miles away from Albany, New York







STORIES FROM OUR PARTNERS